Location: Unspecified
(0.0000°N, 0.0000°E)
Time: 19:31:05
(UTC+00:00)

Vanguard 1 - Pass Details

Date: 25 April 2026
Orbit: 654 x 3817 km, 34.2° (Epoch: 18 May)

Event Time Altitude Azimuth Distance (km) Brightness Sun altitude
Rises 01:08:31 0° 314° (NW) 7,933 14.7 -68.1°
Reaches altitude 10° 01:16:37 10° 328° (NNW) 6,869 14.3 -66.5°
Maximum altitude 01:32:13 22° 12° (NNE) 5,216 13.7 -63.2°
Drops below altitude 10° 01:44:05 10° 58° (ENE) 5,239 14.1 -60.6°
Sets 01:48:53 0° 73° (ENE) 5,743 14.4 -59.6°
